[[{"header":{"parameterUnit":"m.s-1","parameterCategory":1,"la1":30.2991,"la2":30.254,"lo1":-89.0895,"lo2":-89.0444,"dy":0.0017,"dx":0.0017,"nx":28,"ny":28,"refTime":"2024-08-14T03:00:00:Z","depth":0,"parameterNumber":2,"parameterNumberName":"U-component_of_WINDS"},"data":[0,0,0,0,0,0,0,0,0,0,0,0,0,0,0,0,0,0,0,0,0,0,0,0,0,0,0,0,0,0,0,0,0,0,0,0,0,0,0,0,0,0,0,0,0,0,0,0,0,0,0,0,0,0,0,0,0,0,3.5584,3.5587,0,3.5831,3.5833,3.5836,3.5865,3.5862,3.586,3.5857,3.611,3.6119,3.6128,0,0,0,0,0,0,0,0,0,0,0,0,0,3.5137,3.5145,3.5584,3.5587,3.559,3.583,3.5834,3.5837,3.5865,3.5862,3.5859,3.5856,3.6107,3.6118,3.6129,0,0,0,0,0,0,0,0,0,0,0,0,0,3.5352,3.5147,3.5583,3.5633,3.564,3.583,3.5834,3.5838,3.5866,3.5862,3.5858,3.5855,3.6104,3.6117,3.613,3.6287,0,0,3.6172,3.6177,0,0,0,0,0,0,0,0,3.534,3.5368,3.5623,3.563,3.5638,3.5813,3.5769,3.5989,3.5867,3.578,3.5857,3.5853,3.6014,3.6035,3.6089,3.6299,3.631,3.6173,3.6181,3.6187,3.6191,0,0,0,0,0,0,0,3.5325,3.5358,3.5681,3.5626,3.5636,3.5643,3.5669,3.5811,3.5915,3.5787,3.579,3.5819,3.6018,3.6076,3.6096,3.6314,3.6172,3.6184,3.6193,3.6198,3.6664,3.6668,0,0,0,0,0,0,3.5301,3.5345,3.5674,3.5689,3.5477,3.5654,3.5683,3.5761,3.5913,3.5933,3.5822,3.5819,3.6055,3.608,3.6105,3.6298,3.6187,3.6199,3.6207,3.666,3.6665,3.667,0,0,0,0,0,0,3.5291,3.533,3.5664,3.5518,3.5561,3.5665,3.5752,3.5767,3.5826,3.5939,3.5958,3.5862,3.6053,3.6085,3.6242,3.6307,3.6206,3.6218,3.6655,3.6662,3.6668,3.6685,0,0,0,0,0,0,3.5278,3.5326,3.5387,3.5519,3.5569,3.5797,3.5756,3.5775,3.5849,3.5848,3.5982,3.6001,3.6053,3.6221,3.6255,3.6324,3.6228,3.665,3.6658,3.6666,3.6679,3.6692,3.6702,0,0,0,0,0,3.5262,3.5382,3.539,3.5429,3.5647,3.58,3.5829,3.5886,3.5854,3.5916,3.5989,3.5997,3.6295,3.6237,3.6275,3.6349,3.6646,3.6656,3.6665,3.6674,3.6689,3.6702,0,0,0,0,0,0,3.5255,3.54,3.541,3.5577,3.5676,3.5805,3.5884,3.59,3.601,3.6004,3.607,3.61,3.6253,3.6317,3.625,3.6509,3.6467,3.6485,3.6461,3.6476,3.6487,3.6468,3.624,0,0,0,0,0,3.5273,3.5385,3.5506,3.5642,3.5691,3.5779,3.5848,3.5883,3.5989,3.6031,3.6115,3.6217,3.6333,3.6409,3.6522,3.6689,3.6718,3.6759,3.677,3.6779,3.6793,3.6885,3.6904,3.6701,3.6701,3.6701,0,0,3.5311,3.5404,3.5471,3.5643,3.5724,3.5838,3.5814,3.5937,3.6022,3.6049,3.6201,3.6267,3.6385,3.6547,3.6622,3.6605,3.6856,3.6791,3.6797,3.6807,3.6897,3.6916,3.6933,3.6708,3.6707,3.6706,0,0,3.5438,3.5521,3.5642,3.5724,3.5846,3.5904,3.5933,3.606,3.6104,3.6258,3.6281,3.6384,3.6583,3.6666,3.6734,3.6893,3.6904,3.6928,3.6987,3.7076,3.7092,3.7106,3.7162,3.7181,3.6942,3.6942,3.6943,0,3.547,3.5643,3.5702,3.5824,3.5899,3.5929,3.6052,3.6128,3.6281,3.6332,3.631,3.6561,3.6642,3.6824,3.6862,3.6917,3.6952,3.6913,3.7085,3.71,3.7114,3.7168,3.7189,3.6944,3.6944,3.6944,3.6944,0,3.5676,3.5796,3.5879,3.6026,3.611,3.6232,3.6309,3.6387,3.6416,3.6475,3.6631,3.6731,3.6864,3.691,3.6939,3.7096,3.7081,3.7071,3.703,3.7135,3.7186,3.7207,3.6947,3.6947,3.6946,3.6946,0,0,3.5805,3.5983,3.6012,3.6079,3.6217,3.631,3.6434,3.6564,3.6629,3.6735,3.6839,3.7007,3.6999,3.7076,3.7115,3.7193,3.7311,3.7175,3.7178,3.7195,3.7489,3.7494,3.7516,3.732,3.7324,3.7328,3.7478,0,3.5946,3.6166,3.6223,3.641,3.6521,3.6551,3.6658,3.6754,3.6814,3.6917,3.6983,3.71,3.7082,3.7128,3.7207,3.728,3.7371,3.727,3.7417,3.7421,3.7385,3.7544,3.755,3.7687,3.7499,3.7502,3.7505,0,3.6141,3.625,3.6448,3.657,3.6619,3.6714,3.6838,3.6937,3.7046,3.7084,3.717,3.7201,3.7331,3.7284,3.7463,3.7393,3.7456,3.7501,3.7508,3.7523,3.7468,3.7561,3.7732,3.7752,3.7537,3.7535,3.7532,0,3.6213,3.6409,3.6553,3.6609,3.6756,3.6822,3.6887,3.6992,3.7067,3.7176,3.7225,3.7347,3.7414,3.7508,3.7571,3.7532,3.7744,3.7703,3.7778,3.7777,3.782,3.7816,3.8002,3.7864,3.7864,3.7863,3.7863,0,3.6365,3.6484,3.6587,3.6675,3.681,3.6874,3.7005,3.7071,3.7165,3.7266,3.73,3.7394,3.7473,3.7578,3.7628,3.7768,3.7798,3.7832,3.7844,3.7828,3.7823,3.7869,3.7861,3.7869,3.7868,3.7867,3.7866,0,3.6468,3.6541,3.6699,3.6826,3.686,3.6954,3.7062,3.7148,3.7209,3.7336,3.737,3.7466,3.7591,3.7664,3.7822,3.7856,3.801,3.8019,3.7973,3.7978,3.8048,3.804,3.8269,3.8302,3.8143,3.8144,3.8145,0,3.6559,3.6651,3.6787,3.6857,3.6922,3.7035,3.7111,3.7179,3.7256,3.7388,3.7458,3.7586,3.7691,3.7889,3.7973,3.8094,3.8104,3.8177,3.8123,3.8104,3.8104,3.8097,3.8106,3.8185,3.8186,3.8187,3.8188,0,3.6712,3.6744,3.6852,3.6974,3.7064,3.7163,3.7261,3.7317,3.74,3.7486,3.7614,3.7696,3.7857,3.7983,3.8111,3.8177,3.8197,3.8205,3.8228,3.8212,3.8182,3.8198,3.7996,3.8199,3.8198,3.8197,3.8197,3.8196,3.6811,3.6894,3.7002,3.7122,3.7203,3.7294,3.7381,3.7453,3.7561,3.7697,3.7731,3.7865,3.7972,3.8146,3.8216,3.8322,3.8309,3.8344,3.8352,3.8359,3.836,3.8166,3.8345,3.8345,3.8345,3.8345,3.8345,0,3.6964,3.7035,3.7145,3.7281,3.7375,3.7386,3.7496,3.7573,3.7691,3.7789,3.7892,3.8039,3.8161,3.8254,3.8379,3.8446,3.8458,3.8477,3.8472,3.8486,3.8365,3.8331,3.8465,3.8465,3.8465,3.8465,3.8465,3.8465,3.7055,3.7196,3.724,3.7422,3.7493,3.7624,3.7686,3.777,3.7848,3.8011,3.8112,3.8172,3.8269,3.8401,3.8513,3.8538,3.8581,3.8598,3.8623,3.8508,3.8495,3.8483,3.8451,3.8607,3.8608,3.8736,3.8737,3.8738]},{"header":{"parameterUnit":"m.s-1","parameterCategory":1,"la1":30.2991,"la2":30.254,"lo1":-89.0895,"lo2":-89.0444,"dy":0.0017,"dx":0.0017,"nx":28,"ny":28,"refTime":"2024-08-14T03:00:00:Z","depth":0,"parameterNumber":3,"parameterNumberName":"V-component_of_WINDS"},"data":[0,0,0,0,0,0,0,0,0,0,0,0,0,0,0,0,0,0,0,0,0,0,0,0,0,0,0,0,0,0,0,0,0,0,0,0,0,0,0,0,0,0,0,0,0,0,0,0,0,0,0,0,0,0,0,0,0,0,3.4547,3.4546,0,3.4444,3.4443,3.4442,3.4327,3.4325,3.4324,3.4322,3.4217,3.4215,3.4214,0,0,0,0,0,0,0,0,0,0,0,0,0,3.4642,3.4641,3.4547,3.4546,3.4545,3.4444,3.4443,3.4442,3.4327,3.4325,3.4323,3.4321,3.4217,3.4216,3.4214,0,0,0,0,0,0,0,0,0,0,0,0,0,3.4576,3.464,3.4548,3.4476,3.4468,3.4445,3.4443,3.4441,3.4328,3.4325,3.4323,3.432,3.4218,3.4216,3.4214,3.4253,0,0,3.4208,3.4207,0,0,0,0,0,0,0,0,3.458,3.4573,3.4487,3.448,3.4472,3.4396,3.4438,3.4378,3.4328,3.4381,3.4322,3.4319,3.4278,3.4271,3.4258,3.4248,3.4244,3.4208,3.4207,3.4206,3.4206,0,0,0,0,0,0,0,3.4585,3.4577,3.4506,3.4486,3.4477,3.4447,3.4435,3.4426,3.4345,3.4376,3.4368,3.4357,3.4274,3.426,3.4254,3.4242,3.4208,3.4207,3.4205,3.4205,3.4254,3.4256,0,0,0,0,0,0,3.46,3.4581,3.451,3.4503,3.4521,3.4448,3.4434,3.4423,3.4345,3.4331,3.4359,3.4352,3.4264,3.4257,3.425,3.4287,3.4206,3.4204,3.4203,3.4252,3.4255,3.4257,0,0,0,0,0,0,3.4603,3.4595,3.4514,3.454,3.4527,3.4449,3.4437,3.4422,3.4408,3.4332,3.4317,3.436,3.4262,3.4253,3.4252,3.4282,3.4204,3.4202,3.4249,3.4253,3.4256,3.4365,0,0,0,0,0,0,3.4606,3.4597,3.4612,3.4541,3.4526,3.4519,3.4439,3.4422,3.4405,3.4395,3.4329,3.4315,3.4259,3.4255,3.425,3.4278,3.4201,3.4246,3.4251,3.4255,3.4359,3.4372,3.4384,0,0,0,0,0,3.461,3.4648,3.4613,3.4605,3.4544,3.4521,3.4513,3.4447,3.4408,3.4422,3.4372,3.4317,3.428,3.4256,3.425,3.4278,3.4244,3.4249,3.4254,3.4353,3.4369,3.4383,0,0,0,0,0,0,3.4726,3.4637,3.4598,3.4615,3.4576,3.4502,3.4517,3.4467,3.4439,3.4431,3.435,3.4336,3.4344,3.4311,3.4286,3.4309,3.4253,3.4258,3.4331,3.4346,3.4358,3.4366,3.4199,0,0,0,0,0,3.4753,3.4742,3.4666,3.4687,3.467,3.4597,3.4585,3.4537,3.4494,3.4478,3.4428,3.4388,3.4366,3.4354,3.4331,3.4353,3.4335,3.4368,3.4381,3.4392,3.4396,3.4401,3.4414,3.4275,3.4275,3.4275,0,0,3.4809,3.476,3.4759,3.4709,3.4674,3.4663,3.4585,3.4578,3.4569,3.4476,3.4472,3.4434,3.4384,3.4393,3.4395,3.4366,3.443,3.4399,3.4408,3.4406,3.4408,3.4421,3.4433,3.4279,3.4278,3.4278,0,0,3.4907,3.4869,3.4881,3.4847,3.4794,3.4744,3.4747,3.4679,3.465,3.4644,3.4574,3.4561,3.4527,3.4492,3.4471,3.455,3.4497,3.4545,3.4611,3.4616,3.4627,3.4636,3.4662,3.4672,3.4549,3.455,3.455,0,3.4984,3.4966,3.4894,3.4891,3.487,3.4784,3.4795,3.4764,3.4707,3.4693,3.4661,3.4613,3.4573,3.4572,3.4591,3.4577,3.4575,3.4552,3.4631,3.464,3.4647,3.4671,3.4681,3.4556,3.4555,3.4554,3.4554,0,3.5062,3.505,3.5066,3.5011,3.4992,3.4996,3.4923,3.4911,3.4864,3.4818,3.481,3.4759,3.4722,3.4718,3.4673,3.4709,3.4691,3.4647,3.4589,3.4668,3.4688,3.4697,3.4564,3.4562,3.456,3.4559,0,0,3.5232,3.5134,3.5141,3.5113,3.5046,3.5035,3.5033,3.4995,3.4986,3.4948,3.4943,3.4913,3.487,3.4845,3.4794,3.48,3.4861,3.4753,3.475,3.4773,3.4894,3.4927,3.4939,3.4826,3.4827,3.4829,3.4897,0,3.5316,3.5308,3.5241,3.5252,3.5238,3.5155,3.5153,3.511,3.5066,3.5046,3.4996,3.4976,3.4922,3.4905,3.4907,3.4854,3.4884,3.4848,3.4818,3.4818,3.4833,3.495,3.4987,3.5055,3.4905,3.4906,3.4907,0,3.5414,3.538,3.5389,3.5318,3.531,3.531,3.5267,3.5251,3.5199,3.5166,3.5136,3.5078,3.5069,3.5015,3.4999,3.4975,3.4958,3.493,3.4931,3.4926,3.4868,3.4946,3.5075,3.5085,3.492,3.4919,3.4918,0,3.5534,3.5491,3.5489,3.5469,3.5387,3.5387,3.5353,3.5299,3.5279,3.5242,3.5228,3.5191,3.517,3.5141,3.5073,3.5041,3.5063,3.5005,3.5033,3.5035,3.5042,3.5043,3.5169,3.5034,3.5034,3.5034,3.5033,0,3.5635,3.5643,3.5542,3.5542,3.5547,3.5469,3.5476,3.5433,3.5385,3.5373,3.5298,3.5288,3.52,3.5178,3.5125,3.5118,3.5109,3.508,3.5066,3.5087,3.509,3.5074,3.5068,3.5036,3.5036,3.5035,3.5035,0,3.5771,3.5704,3.5696,3.5618,3.5598,3.5606,3.5537,3.5532,3.5481,3.5467,3.5458,3.5379,3.5349,3.5278,3.5231,3.5195,3.52,3.5175,3.5218,3.5209,3.5241,3.5238,3.536,3.5371,3.5231,3.5233,3.5234,0,3.5839,3.5843,3.5765,3.5751,3.572,3.5699,3.5678,3.56,3.558,3.5519,3.5521,3.5485,3.5453,3.5409,3.5346,3.5307,3.5279,3.5324,3.5273,3.5292,3.5277,3.5277,3.5276,3.5336,3.5338,3.534,3.5341,0,3.5967,3.5933,3.5906,3.5866,3.5842,3.5807,3.5768,3.576,3.5672,3.5653,3.5622,3.5597,3.5546,3.551,3.5462,3.5424,3.5367,3.5357,3.5361,3.5382,3.5406,3.5391,3.5248,3.5355,3.5354,3.5353,3.5352,3.5351,3.607,3.6068,3.6012,3.5983,3.5944,3.5908,3.5898,3.5845,3.5818,3.5771,3.5726,3.5698,3.5641,3.557,3.5535,3.551,3.5482,3.5489,3.549,3.5493,3.5501,3.5411,3.5501,3.5501,3.55,3.55,3.55,0,3.6192,3.6151,3.6125,3.6071,3.6047,3.5995,3.5947,3.5931,3.5907,3.586,3.5828,3.579,3.5754,3.5686,3.5643,3.5636,3.5609,3.5628,3.5627,3.5618,3.553,3.553,3.565,3.565,3.565,3.565,3.565,3.565,3.6253,3.6247,3.6205,3.6177,3.6134,3.6107,3.6084,3.6049,3.601,3.5971,3.594,3.5896,3.5839,3.579,3.5754,3.5734,3.5721,3.5748,3.5721,3.5639,3.5625,3.5612,3.5611,3.5746,3.5747,3.581,3.5811,3.5811]}]]